Dewpoint
75 73 73 72 71 70 70 68 49 50 50 47 48 48 48 52 51 50 50 52 53 57 55 56 56 56 55 55 60 61 62 59 61 53 54 64 70 70 71 70 71 72 72 73 74 74 74 75 75 76 76 76 75 75 75 74 75 76 76 75 76 75 76 76 76 76 76 76 76 76 76 76 76 77 77 76 77 77 77 77 77 77 77 77 76 76 76 76 76 76 77 76 76 76 76 76 75
72 73 71 71 70 71 66 66 50 48 49 47 47 48 50 52 52 50 51 52 55 56 59 59 59 60 60 60 60 58 59 62 64 63 66 68 69 70 71 71 71 71 72 73 73 73 74 74 75 75 76 76 75 76 76 75 75 76 76 76 76 76 76 76 76 76 76 76 76 75 76 76 76 76 76 76 77 77 77 77 77 77 76 76 76 76 76 75 75 75 76 76 75 76 76 75 75
73 70 69 71 71 69 67 61 46 48 47 46 48 50 53 51 52 54 55 56 58 58 58 58 58 58 59 58 54 58 56 64 64 66 67 69 68 70 71 71 72 73 72 72 73 73 74 74 74 74 75 76 75 76 76 75 76 76 77 76 76 76 76 75 75 76 76 76 75 75 75 76 76 76 76 76 77 77 77 77 77 77 76 76 76 76 75 75 74 75 75 75 75 74 74 75 74
71 70 70 71 66 68 62 52 49 48 46 47 47 50 52 53 55 57 58 58 57 57 57 56 56 59 57 57 59 61 61 62 65 65 66 67 68 70 71 72 73 72 73 73 73 73 74 74 73 73 74 76 75 76 75 74 75 76 76 76 76 76 76 75 75 75 76 75 75 75 75 75 76 76 76 76 76 76 76 76 76 76 76 77 76 76 75 75 75 74 74 74 74 75 75 74 75
68 71 72 69 66 62 61 50 46 47 43 47 44 50 54 55 56 57 57 57 57 57 57 58 58 62 62 60 61 58 60 65 65 66 66 69 70 71 72 72 72 72 72 73 73 73 74 74 74 74 74 75 75 75 74 75 76 76 76 76 76 76 76 76 76 76 76 75 75 75 75 75 76 76 76 76 76 76 76 76 76 76 76 76 75 75 75 75 75 74 74 74 73 74 75 75 75
70 70 69 69 64 65 56 46 44 42 46 47 46 51 55 56 56 56 56 57 57 58 58 57 56 57 59 61 62 61 63 61 65 66 67 68 70 71 73 73 71 72 72 73 73 74 74 75 75 75 75 75 75 76 75 75 76 76 76 76 77 76 77 77 77 76 76 76 75 75 75 75 76 76 76 76 75 75 76 75 76 76 76 76 75 75 75 75 75 73 74 74 74 74 73 74 74
67 67 67 68 66 62 50 43 41 43 44 45 47 53 56 56 56 56 55 56 56 57 58 57 59 59 58 61 62 65 66 65 65 66 68 70 71 72 72 71 72 72 73 74 74 74 74 75 75 76 76 76 76 76 76 76 76 76 77 76 76 77 77 77 77 76 76 75 75 75 75 75 75 76 76 76 76 75 75 76 75 75 75 75 75 74 75 75 74 73 72 73 74 74 74 74 74
68 64 65 61 55 49 41 40 41 42 45 47 51 54 55 55 56 55 54 54 54 54 57 58 58 58 60 63 58 65 67 68 68 69 70 70 71 72 72 72 71 72 72 74 74 74 75 75 75 76 76 76 77 77 76 76 76 76 77 76 76 77 77 76 76 76 75 75 75 75 76 75 75 75 75 76 75 75 75 75 75 75 75 75 76 75 75 74 74 73 74 74 74 75 74 74 74
64 64 63 59 42 39 40 41 44 46 48 49 52 55 57 55 55 54 54 55 55 56 56 56 58 54 59 60 60 65 67 68 69 71 70 70 71 71 71 71 71 72 73 73 73 74 75 75 75 76 76 76 75 76 76 76 76 76 76 76 76 77 77 76 76 75 75 75 75 75 75 75 75 75 75 76 75 75 75 75 75 75 75 76 76 75 75 75 75 75 75 74 74 74 74 74 74
64 61 57 53 45 41 42 43 44 46 48 50 51 54 54 54 53 55 54 54 55 56 59 61 59 57 60 59 62 64 66 69 69 69 70 70 70 71 71 70 71 72 72 73 74 74 74 76 76 76 76 76 75 76 76 76 76 76 76 75 76 76 76 76 75 75 75 75 75 75 75 75 76 76 76 76 76 76 75 75 75 75 75 75 75 74 74 74 74 75 75 74 74 75 75 74 73
63 63 58 47 40 40 40 41 45 48 49 50 52 53 54 53 54 54 54 56 57 57 59 59 59 59 59 60 63 67 68 69 68 68 70 70 71 71 70 71 71 71 71 72 74 74 75 75 76 76 76 76 76 76 76 76 76 76 76 76 76 76 76 76 75 75 75 75 75 75 75 75 75 76 76 76 75 75 75 75 75 75 75 74 75 75 75 75 76 76 76 75 75 75 75 74 73
59 60 59 41 40 40 41 44 46 48 50 50 51 53 53 54 55 55 56 54 57 57 57 58 57 59 59 59 61 67 68 68 68 69 70 70 70 70 71 71 72 72 72 73 74 75 76 76 76 77 76 77 77 76 76 76 75 75 76 76 76 76 76 76 75 76 75 75 75 76 76 76 75 76 76 75 75 75 75 75 75 75 73 74 73 74 74 74 75 75 75 75 75 75 75 75 74
58 57 54 40 38 39 41 45 46 48 48 49 49 52 54 54 53 54 55 56 57 55 55 59 59 58 57 59 64 66 66 67 69 70 70 70 70 70 71 71 71 72 73 74 74 75 76 76 75 75 76 77 77 76 76 76 76 76 76 76 76 76 76 76 76 76 75 75 75 76 76 76 75 76 75 75 75 75 75 75 74 72 74 73 73 73 74 74 74 74 74 74 74 74 74 74 75
57 55 49 43 43 39 43 43 47 47 47 49 51 54 54 53 55 55 56 54 55 54 58 59 59 60 60 62 64 63 65 68 69 70 70 70 71 70 71 71 72 73 73 74 75 75 75 75 74 74 76 76 77 76 76 76 75 76 76 75 76 76 76 76 76 76 75 75 75 76 76 75 75 75 76 75 75 75 74 74 75 74 74 74 73 74 74 73 74 74 74 74 74 74 74 74 74
56 51 45 44 38 41 42 43 45 45 45 49 51 54 54 56 56 57 54 52 56 60 61 63 61 55 55 58 60 61 65 68 68 70 70 70 71 71 72 72 72 73 73 74 75 75 75 76 73 75 76 75 77 77 76 76 76 75 76 76 76 76 76 75 75 75 75 76 76 76 76 75 75 75 75 75 75 75 74 74 74 74 74 73 74 73 73 72 72 74 74 74 74 74 74 74 74
58 50 43 41 38 39 41 42 46 45 45 49 53 54 54 57 57 55 55 58 59 61 58 56 62 58 56 59 60 63 67 68 69 69 70 70 72 72 72 72 72 74 74 75 74 75 75 76 76 76 76 75 76 75 76 76 76 76 76 76 76 75 75 75 75 75 75 76 76 76 76 76 75 75 75 75 75 75 74 75 75 73 74 73 73 73 73 73 72 74 74 74 74 74 74 74 74
57 53 44 39 37 39 40 41 45 43 45 49 54 54 54 55 56 59 61 60 58 58 59 58 59 59 57 60 64 66 67 69 70 69 70 71 71 70 72 73 72 73 73 74 75 75 75 76 75 75 76 76 75 75 75 76 76 76 76 76 76 75 75 75 75 75 75 75 76 76 76 76 76 76 76 76 75 75 76 76 73 72 74 73 73 73 74 74 75 75 74 75 75 74 74 74 74
56 50 45 41 37 37 40 41 45 45 46 50 53 53 54 54 56 58 59 58 58 58 59 60 61 61 61 64 67 67 68 68 68 68 68 69 69 68 69 70 70 71 71 73 75 76 76 76 75 75 75 76 76 76 76 76 76 76 76 76 76 76 75 76 76 76 76 76 75 76 76 76 76 76 76 75 76 76 74 75 74 74 74 72 73 73 75 76 75 75 75 73 74 75 75 74 74
50 46 43 40 39 37 40 42 45 45 46 51 53 54 53 53 56 58 55 56 56 57 59 61 62 63 64 65 67 67 68 68 68 67 67 68 68 68 67 69 70 70 70 72 73 74 75 75 75 75 75 76 76 76 75 75 76 76 76 77 76 75 75 76 76 77 76 76 76 76 76 76 76 76 77 76 75 75 75 76 76 74 74 73 73 72 75 73 73 73 72 73 73 73 75 74 74
48 44 43 42 41 39 40 41 44 45 50 51 52 53 52 56 55 58 55 55 55 54 57 59 60 62 63 65 66 67 67 67 68 67 66 67 68 67 68 68 69 70 70 71 71 74 74 74 75 75 75 76 75 74 74 75 75 76 75 76 76 76 76 76 76 76 76 76 76 76 75 77 76 77 76 76 76 76 75 75 76 76 76 75 75 74 73 70 69 70 71 72 72 72 73 73 73
47 44 42 42 41 39 41 40 43 47 51 51 52 53 53 56 55 55 55 54 54 54 57 57 59 62 63 65 66 66 67 66 67 67 66 67 67 66 67 68 68 69 70 70 72 73 74 74 74 75 76 76 76 74 75 74 75 75 75 75 75 75 75 76 75 76 76 76 76 76 75 76 75 75 76 76 74 75 73 73 74 75 76 76 73 75 72 72 69 70 72 73 73 73 72 73 73
43 43 44 43 41 39 41 40 43 48 51 52 52 52 52 56 55 54 55 52 50 53 57 58 61 63 64 64 65 66 66 66 66 66 66 66 66 67 67 68 68 69 71 70 70 72 73 73 74 74 74 75 75 74 74 75 76 75 75 75 75 75 75 75 75 75 75 76 75 75 75 76 76 75 76 76 75 76 74 73 74 75 75 75 75 73 70 71 70 70 71 72 71 71 71 72 72
39 41 42 43 40 39 41 40 45 50 51 52 52 52 55 54 53 54 53 51 51 54 57 60 62 64 65 65 65 65 65 66 66 66 67 67 67 67 67 67 68 68 70 70 71 71 72 73 74 74 73 74 75 75 75 75 75 75 75 75 74 74 74 74 73 74 75 76 76 76 74 74 74 73 74 75 75 75 73 73 74 75 75 74 74 71 71 71 70 69 71 72 72 71 71 71 72
39 36 33 38 41 40 41 40 47 49 51 51 52 55 53 53 51 54 52 51 54 54 58 62 64 65 65 65 65 65 65 66 66 67 67 67 67 67 68 68 69 69 70 70 70 71 72 72 74 74 73 74 75 75 75 74 75 75 75 76 75 75 74 74 73 74 76 75 76 76 76 75 73 73 74 74 74 74 73 74 75 75 75 73 73 72 70 70 70 71 72 73 73 72 70 71 70
36 36 35 32 40 40 41 42 47 49 51 52 53 52 53 53 52 54 51 52 56 58 61 64 65 65 65 65 65 66 66 66 66 67 67 68 68 68 69 69 70 70 70 70 70 71 72 72 73 73 73 74 74 74 74 74 74 75 75 75 75 76 75 75 74 75 75 75 75 76 76 74 74 74 73 74 74 74 74 75 74 74 75 73 73 71 71 72 72 72 72 72 73 72 71 71 71
31 33 30 32 36 41 40 43 47 49 51 52 52 52 53 54 54 52 51 55 59 61 63 64 65 64 64 65 66 67 67 67 67 67 67 67 67 68 69 69 69 69 70 71 70 71 71 72 73 72 73 74 74 73 74 74 74 74 74 75 75 76 75 75 76 74 74 75 75 76 76 75 74 73 73 74 75 74 75 75 75 74 74 74 72 72 71 71 71 72 73 73 72 72 71 71 71
28 28 30 29 34 41 41 43 46 49 50 52 51 53 53 54 53 50 54 58 61 62 63 64 64 64 64 64 65 67 67 66 67 67 67 67 68 69 68 68 69 69 70 71 70 71 72 72 72 73 73 75 74 73 74 74 75 74 75 75 75 75 75 75 75 75 74 74 74 78 77 77 76 75 74 75 75 75 75 76 75 75 74 73 73 71 72 72 72 72 72 71 71 71 70 70 70
27 40 43 42 42 42 41 44 47 48 50 52 52 52 53 53 53 50 53 60 61 62 63 64 64 64 64 65 66 68 68 67 67 67 66 67 68 68 68 68 68 69 70 71 71 72 71 72 72 73 73 74 74 73 74 74 74 74 75 75 74 75 76 75 74 75 75 74 76 77 78 77 77 76 76 76 75 75 76 75 76 75 74 74 74 72 72 73 73 72 73 73 72 72 71 70 71
38 41 40 43 42 42 42 43 46 47 48 52 52 51 51 52 51 53 57 60 61 62 63 63 64 64 65 66 66 68 67 68 68 67 67 68 68 68 68 68 68 69 70 70 71 72 71 72 72 73 74 75 75 74 74 75 74 74 74 75 75 76 75 75 74 75 75 76 77 77 77 78 78 77 77 76 75 75 75 76 75 74 74 74 74 74 73 73 73 73 73 73 72 71 70 71 71
44 44 42 42 41 42 44 47 46 46 50 52 49 42 47 50 52 55 59 59 61 62 63 63 64 64 65 66 66 67 67 68 68 68 68 68 68 68 68 68 69 69 69 71 72 72 71 72 73 73 74 75 75 74 75 74 75 74 75 75 76 76 75 75 75 76 76 76 77 77 77 77 76 76 76 76 75 75 75 75 75 74 74 74 75 74 73 72 72 72 72 71 70 70 70 71 69
39 44 42 40 39 40 46 45 45 46 52 51 47 40 42 48 52 57 59 60 60 60 62 62 63 63 65 65 66 66 67 68 68 68 68 69 68 68 68 68 69 69 70 71 71 73 73 74 74 74 74 75 75 75 75 75 75 75 75 75 75 76 75 75 74 75 75 76 76 76 77 77 77 76 76 76 75 75 74 74 73 73 73 74 73 74 73 73 72 72 70 70 70 71 70 71 70
43 37 39 42 37 43 46 49 46 46 51 50 46 42 40 47 51 57 59 59 59 59 61 62 62 63 64 65 65 66 67 68 68 68 68 68 68 68 68 69 69 69 71 72 72 73 74 74 75 74 75 75 75 76 76 76 76 76 75 76 76 77 75 75 75 75 75 75 75 76 77 77 76 76 76 76 76 75 74 74 73 74 74 73 74 74 74 72 72 71 71 70 70 70 71 70 69
41 36 40 39 40 43 45 47 48 49 50 50 46 41 46 45 51 57 59 59 58 59 60 61 61 62 63 64 65 65 66 67 68 68 69 69 69 69 69 69 70 71 71 73 73 74 74 74 75 74 74 75 76 76 76 76 76 76 76 76 76 76 75 75 76 76 75 75 75 74 76 76 76 76 76 76 76 75 74 74 73 73 74 73 73 73 72 71 71 70 71 71 71 70 69 69 69
39 37 40 41 39 44 42 46 48 50 49 48 49 46 45 52 53 57 59 59 59 58 60 61 61 62 63 64 64 65 66 67 67 68 69 69 70 70 70 71 70 71 72 72 73 74 74 74 75 75 75 74 76 76 76 76 76 76 76 76 76 75 75 75 76 76 76 75 76 76 76 76 75 75 75 74 75 74 73 73 73 74 74 73 73 72 72 71 71 71 71 71 71 71 69 69 68
37 37 40 40 42 42 42 43 46 50 48 47 48 46 46 51 54 57 59 59 58 58 59 60 61 62 63 63 64 65 65 66 66 68 68 70 69 70 70 70 70 71 72 73 73 74 74 74 75 76 76 75 75 76 77 76 76 77 76 76 75 76 76 76 75 75 76 76 75 77 76 75 75 75 74 74 74 75 74 73 73 74 73 72 72 71 71 71 71 71 71 71 71 71 70 69 69
36 37 37 39 39 43 43 44 48 49 48 46 47 46 45 51 54 56 59 59 59 59 60 60 61 62 63 63 64 64 65 65 66 68 68 68 69 69 69 70 70 71 72 73 74 74 75 75 75 75 76 75 76 76 76 75 75 75 74 75 75 75 75 75 76 75 76 76 76 77 76 76 76 75 74 74 74 74 73 73 73 73 72 72 72 71 71 71 71 71 71 71 70 70 70 69 70
37 37 39 39 38 42 44 44 47 49 49 47 47 47 47 50 54 55 58 59 59 59 59 60 61 62 62 63 63 64 65 65 66 67 67 68 68 69 69 70 70 71 72 73 74 74 75 74 75 75 76 76 75 75 75 75 74 74 75 74 73 74 76 76 76 76 76 75 77 77 76 75 75 74 74 74 74 74 74 74 73 72 72 72 72 71 71 71 72 71 70 71 69 69 69 69 69
37 36 37 38 39 40 43 43 46 49 48 48 49 47 47 51 54 55 57 58 58 58 59 60 60 61 62 63 63 64 64 65 65 66 67 67 67 67 68 69 70 70 71 72 73 73 74 74 75 75 75 76 75 75 75 75 76 74 74 73 73 73 75 75 75 76 76 76 77 76 76 75 75 75 74 74 74 74 74 73 72 72 72 72 72 72 71 71 71 70 70 69 70 68 68 68 69
38 35 37 37 38 36 37 41 45 48 47 46 47 47 47 51 54 55 56 57 58 58 59 59 61 61 62 62 63 64 64 65 65 65 65 65 66 66 67 68 68 69 70 71 72 73 74 74 75 75 75 75 75 75 76 75 76 76 75 75 74 73 74 74 74 74 76 75 76 75 75 75 75 74 74 74 73 73 73 73 72 73 72 72 72 70 71 70 70 70 70 69 67 68 68 69 69
36 34 36 36 36 37 35 38 43 47 46 45 48 45 46 50 54 55 56 56 58 59 59 59 60 61 61 61 62 63 63 64 64 64 63 64 65 66 66 67 68 68 70 70 71 72 73 74 75 75 75 76 76 76 76 76 76 76 76 76 75 74 73 75 75 75 75 75 74 75 74 74 74 73 73 73 74 74 74 73 72 72 73 72 71 71 70 70 70 70 69 69 69 66 64 66 68
34 33 34 35 33 37 37 36 43 46 46 46 46 45 46 49 50 53 55 56 56 57 58 58 59 59 60 61 61 63 62 64 64 64 64 64 65 65 66 67 67 68 69 70 71 71 73 74 75 75 75 75 76 76 76 76 76 76 76 76 75 75 75 74 74 73 74 75 74 74 74 75 74 75 74 74 74 74 73 72 72 72 73 71 71 70 70 70 70 70 70 69 68 68 65 66 67
28 30 32 32 32 35 36 40 40 40 41 44 42 43 41 48 48 50 53 55 55 56 57 57 58 59 59 59 60 61 62 63 64 64 63 63 64 65 66 67 67 67 68 69 70 71 73 73 75 75 75 75 75 76 76 76 76 75 73 73 72 72 72 72 71 72 72 73 72 73 75 74 73 74 75 74 74 73 73 73 73 72 71 71 71 71 71 71 71 70 70 70 69 69 67 65 65
24 27 28 29 30 31 35 39 37 39 39 43 43 39 36 47 48 50 54 55 55 56 56 56 57 59 58 58 59 59 60 61 62 63 63 62 64 64 66 67 67 67 68 69 70 71 73 74 75 75 75 75 76 76 77 76 76 75 75 74 73 72 72 72 74 74 73 74 74 75 74 72 74 74 74 74 73 73 73 73 73 72 73 72 72 72 71 70 69 70 70 70 69 69 69 66 66
21 27 25 27 30 31 34 37 34 38 44 44 43 39 37 38 41 51 54 54 55 55 56 56 56 58 57 57 57 59 59 59 60 62 62 63 64 64 65 66 67 66 67 68 69 71 73 74 75 75 75 75 76 76 77 76 75 75 74 75 74 74 73 74 75 75 75 75 74 74 73 72 73 73 73 73 73 73 73 73 74 74 72 70 71 71 71 71 71 71 70 70 70 69 69 67 65
23 25 24 27 29 32 35 35 33 38 37 41 42 42 41 40 44 51 53 53 54 55 55 56 57 57 57 57 57 58 58 59 60 60 61 62 63 64 65 66 66 67 67 68 69 71 72 73 74 75 75 75 76 76 76 76 76 76 75 75 75 74 74 74 74 74 74 75 74 74 72 72 73 74 74 73 73 73 73 74 74 72 70 70 72 69 68 70 71 71 71 70 70 69 69 68 67
23 24 24 26 30 35 35 34 34 40 39 38 43 41 39 38 45 46 52 51 52 53 55 55 57 57 57 57 57 57 58 60 59 60 61 62 62 63 64 66 66 66 67 70 69 70 72 73 74 75 75 75 76 76 76 77 76 76 75 75 75 75 75 75 74 73 74 74 74 73 72 72 72 73 73 74 74 74 73 72 71 70 69 67 68 67 68 69 69 69 69 69 69 68 69 69 68
23 22 22 25 32 37 39 41 42 41 37 36 41 41 38 31 41 44 49 50 51 52 54 55 57 57 57 58 57 57 58 59 59 59 60 62 62 63 64 65 67 67 68 69 69 70 71 72 73 74 75 75 76 76 76 76 76 76 75 75 75 75 75 74 73 73 73 73 73 73 72 72 72 72 72 73 73 73 72 71 68 68 69 70 69 68 67 66 66 67 67 69 69 68 68 69 69
21 21 24 25 32 36 38 37 41 35 33 39 38 40 40 33 34 46 48 51 51 51 51 54 54 56 56 58 57 57 58 59 59 59 60 61 63 63 64 65 67 68 68 68 68 69 70 72 73 74 74 75 75 76 76 76 75 76 76 75 75 75 75 74 73 73 72 72 72 73 73 73 73 73 72 71 70 68 71 70 70 70 70 69 68 68 67 66 65 66 67 68 67 68 68 69 69
19 21 24 22 28 29 28 33 32 33 28 33 34 40 40 39 37 45 46 47 48 50 49 50 53 54 56 56 57 57 57 58 59 60 61 61 62 63 63 65 68 69 69 69 68 68 70 72 73 73 74 75 75 75 76 76 76 76 75 75 75 76 75 74 74 73 72 72 72 72 72 71 71 70 70 69 68 69 71 71 71 70 69 69 68 68 68 68 68 67 67 67 67 67 67 67 67
20 21 26 25 25 23 24 28 33 31 31 31 31 40 36 41 42 44 42 43 45 47 50 50 52 54 56 56 57 56 57 58 59 59 61 62 64 63 64 65 67 68 68 69 69 69 70 71 73 73 73 75 75 75 75 76 76 76 76 76 75 75 75 75 73 72 72 71 71 71 70 69 69 68 68 68 67 69 70 70 70 69 69 69 69 68 68 68 69 68 68 67 66 67 67 68 68
21 20 20 23 27 22 24 26 23 23 25 34 36 35 36 33 32 40 41 43 45 45 46 50 52 52 55 55 56 56 56 58 60 61 60 61 64 64 64 66 66 67 67 67 69 70 71 71 72 73 73 74 75 75 75 75 75 76 76 76 76 76 75 74 73 72 71 71 70 70 71 69 68 68 68 69 70 70 70 70 70 68 69 69 69 68 67 69 69 69 68 68 67 67 67 67 66
21 21 23 26 23 28 20 27 23 26 27 30 38 33 38 33 46 44 45 40 43 41 43 47 50 51 52 53 53 54 55 56 58 59 61 62 64 65 64 65 65 66 68 67 69 71 70 71 72 73 73 74 74 75 75 75 75 76 76 76 75 75 74 73 73 71 71 70 70 70 70 70 69 69 70 70 69 70 69 69 70 68 69 68 69 68 68 66 69 68 68 68 67 67 67 67 67
21 21 21 21 26 20 35 32 28 28 27 26 40 36 36 38 36 36 39 41 41 46 44 43 47 49 53 53 52 53 54 55 57 59 60 63 64 65 65 65 64 65 66 68 70 71 71 71 72 73 74 74 74 75 75 75 75 75 75 75 75 74 73 72 71 70 69 69 69 69 69 68 69 70 69 69 69 70 70 69 68 67 68 69 68 69 68 68 69 68 67 68 67 66 69 68 67
19 19 21 26 26 27 29 20 34 24 19 30 32 29 31 30 25 47 41 40 37 41 45 42 47 50 51 51 53 54 53 55 58 61 63 63 63 64 63 64 64 65 66 68 71 71 71 72 72 72 73 73 74 74 74 74 75 75 75 74 74 73 71 71 70 70 69 68 68 69 69 69 68 68 68 68 69 69 70 70 68 68 67 67 67 66 68 68 68 67 67 68 66 68 68 68 68
15 16 23 17 25 24 44 33 25 23 23 22 31 32 28 31 29 35 35 38 40 44 48 45 46 47 48 50 53 55 54 54 57 58 61 61 62 63 64 63 63 65 68 69 70 70 70 71 71 70 72 72 73 73 74 74 75 74 74 73 72 71 71 70 69 70 69 68 66 67 67 67 68 69 69 69 69 69 69 69 69 68 68 68 68 67 68 68 68 67 67 66 67 69 67 66 67
16 22 19 21 23 30 30 27 36 27 22 24 23 29 25 36 31 30 26 38 48 43 47 44 43 46 48 49 50 53 55 56 56 56 58 60 61 61 62 63 63 65 67 67 67 67 67 69 71 71 71 73 73 74 74 74 73 73 72 72 71 71 70 70 69 70 68 67 67 67 66 67 68 68 68 68 68 68 68 67 66 65 66 67 68 66 67 67 68 67 66 64 64 68 67 66 64
14 16 18 21 23 23 24 28 23 22 26 25 22 24 30 37 40 34 37 39 43 42 41 52 48 45 46 48 50 54 55 56 56 56 58 59 60 60 61 63 63 64 66 66 65 66 67 67 69 69 71 71 71 72 73 73 73 72 72 71 70 70 69 68 68 68 68 68 68 68 67 67 68 68 68 68 68 68 68 67 66 67 66 67 68 67 67 68 68 67 68 67 67 68 67 66 67
12 13 17 18 20 22 19 22 23 26 22 29 23 20 32 31 40 44 40 41 38 42 45 47 47 46 49 48 50 55 55 58 58 56 56 57 60 61 61 63 64 64 64 65 65 66 66 67 67 68 68 69 69 71 73 73 73 72 71 71 70 68 67 67 67 68 67 67 67 68 68 68 67 67 68 67 68 68 68 68 66 68 68 68 68 69 66 67 67 67 66 66 66 67 67 67 67